When you browse on this site, cookies collect data to enhance your experience and personalize the content and advertising you see.
Visit our Privacy Policy to learn more. By continuing to use the site, you agree to this use of cookies and data.
  • In Deutschland
  • Länderverzeichnis
  • Für 7 Tage
  • Wassertemperatur
  • Satellitenkarten
  • Wetterkarte
  • Widgets
  • user-avatar
    Anmelden

    Stündliche Wetter Nowinki

    Heute, 22 Mai, Mittwoch

    Zeit Temperatur Niederschläge Wind Luftdruck Luftfeuchtigkeit
    00:00 +12°C° 0 mm 4 m/S 742 mmHg 87%
    01:00 +12°C° 0 mm 4 m/S 741 mmHg 88%
    02:00 +12°C° 0 mm 5 m/S 742 mmHg 88%
    03:00 +12°C° 0 mm 5 m/S 742 mmHg 88%
    04:00 +12°C° 0 mm 5 m/S 742 mmHg 88%
    05:00 +13°C° 0 mm 5 m/S 742 mmHg 87%
    06:00 +14°C° 0 mm 5 m/S 742 mmHg 85%
    07:00 +14°C° 0 mm 5 m/S 742 mmHg 82%
    08:00 +15°C° 0.1 mm 5 m/S 742 mmHg 81%
    09:00 +15°C° 0.1 mm 5 m/S 743 mmHg 81%
    10:00 +15°C° 0.1 mm 5 m/S 743 mmHg 80%
    11:00 +17°C° 0.4 mm 5 m/S 743 mmHg 76%
    12:00 +19°C° 0.4 mm 5 m/S 743 mmHg 73%
    13:00 +21°C° 0.4 mm 4 m/S 743 mmHg 69%
    14:00 +20°C° 0.9 mm 4 m/S 743 mmHg 70%
    15:00 +20°C° 0.9 mm 4 m/S 743 mmHg 71%
    16:00 +20°C° 0.9 mm 3 m/S 743 mmHg 73%
    17:00 +19°C° 0.6 mm 3 m/S 743 mmHg 77%
    18:00 +18°C° 0.6 mm 3 m/S 743 mmHg 81%
    19:00 +17°C° 0.6 mm 2 m/S 743 mmHg 86%
    20:00 +17°C° 0.7 mm 2 m/S 744 mmHg 88%
    21:00 +16°C° 0.7 mm 2 m/S 744 mmHg 90%
    22:00 +15°C° 0.7 mm 2 m/S 744 mmHg 93%
    23:00 +15°C° 0.4 mm 2 m/S 745 mmHg 93%

    Morgen, 23 Mai, Donnerstag

    Zeit Temperatur Niederschläge Wind Luftdruck Luftfeuchtigkeit
    00:00 +14°C° 0.4 mm 1 m/S 745 mmHg 94%
    01:00 +14°C° 0.4 mm 1 m/S 745 mmHg 94%
    02:00 +14°C° 0 mm 1 m/S 745 mmHg 95%
    03:00 +13°C° 0 mm 1 m/S 746 mmHg 95%
    04:00 +13°C° 0 mm 1 m/S 746 mmHg 96%
    05:00 +14°C° 0 mm 2 m/S 746 mmHg 92%
    06:00 +16°C° 0 mm 2 m/S 747 mmHg 89%
    07:00 +17°C° 0 mm 2 m/S 747 mmHg 86%
    08:00 +18°C° 0.2 mm 2 m/S 747 mmHg 80%
    09:00 +20°C° 0.2 mm 2 m/S 747 mmHg 75%
    10:00 +21°C° 0.2 mm 3 m/S 748 mmHg 70%
    11:00 +21°C° 1.4 mm 3 m/S 748 mmHg 72%
    12:00 +21°C° 1.4 mm 4 m/S 748 mmHg 73%
    13:00 +21°C° 1.4 mm 5 m/S 748 mmHg 75%
    14:00 +20°C° 1.1 mm 5 m/S 748 mmHg 77%
    15:00 +20°C° 1.1 mm 5 m/S 748 mmHg 79%
    16:00 +20°C° 1.1 mm 6 m/S 748 mmHg 81%
    17:00 +19°C° 0.5 mm 5 m/S 748 mmHg 83%
    18:00 +17°C° 0.5 mm 5 m/S 748 mmHg 85%
    19:00 +16°C° 0.5 mm 5 m/S 748 mmHg 87%
    20:00 +15°C° 0.1 mm 5 m/S 749 mmHg 88%
    21:00 +14°C° 0.1 mm 5 m/S 749 mmHg 89%
    22:00 +13°C° 0.1 mm 5 m/S 749 mmHg 90%
    23:00 +13°C° 0 mm 4 m/S 749 mmHg 88%

    übermorgen, 24 Mai, Freitag

    Zeit Temperatur Niederschläge Wind Luftdruck Luftfeuchtigkeit
    00:00 +12°C° 0 mm 4 m/S 749 mmHg 86%
    01:00 +11°C° 0 mm 4 m/S 749 mmHg 84%
    02:00 +11°C° 0 mm 4 m/S 749 mmHg 84%
    03:00 +10°C° 0 mm 3 m/S 749 mmHg 84%
    04:00 +10°C° 0 mm 3 m/S 749 mmHg 84%
    05:00 +11°C° 0 mm 3 m/S 750 mmHg 81%
    06:00 +12°C° 0 mm 3 m/S 750 mmHg 79%
    07:00 +13°C° 0 mm 4 m/S 750 mmHg 76%
    08:00 +15°C° 0 mm 4 m/S 750 mmHg 71%
    09:00 +17°C° 0 mm 4 m/S 750 mmHg 66%
    10:00 +19°C° 0 mm 4 m/S 750 mmHg 61%
    11:00 +20°C° 0 mm 4 m/S 749 mmHg 59%
    12:00 +20°C° 0 mm 4 m/S 749 mmHg 56%
    13:00 +21°C° 0 mm 5 m/S 749 mmHg 54%
    14:00 +21°C° 0 mm 4 m/S 749 mmHg 55%
    15:00 +21°C° 0 mm 4 m/S 748 mmHg 55%
    16:00 +21°C° 0 mm 4 m/S 748 mmHg 56%
    17:00 +20°C° 0 mm 4 m/S 748 mmHg 61%
    18:00 +19°C° 0 mm 3 m/S 748 mmHg 65%
    19:00 +18°C° 0 mm 3 m/S 748 mmHg 70%
    20:00 +17°C° 0 mm 2 m/S 748 mmHg 73%
    21:00 +16°C° 0 mm 2 m/S 748 mmHg 77%
    22:00 +14°C° 0 mm 2 m/S 748 mmHg 80%
    23:00 +14°C° 0 mm 1 m/S 748 mmHg 82%

    25 Mai, Samstag

    Zeit Temperatur Niederschläge Wind Luftdruck Luftfeuchtigkeit
    00:00 +13°C° 0 mm 1 m/S 748 mmHg 84%
    01:00 +13°C° 0 mm 1 m/S 748 mmHg 86%
    02:00 +13°C° 0 mm 1 m/S 748 mmHg 86%
    03:00 +12°C° 0 mm 1 m/S 748 mmHg 87%
    04:00 +12°C° 0 mm 1 m/S 748 mmHg 87%
    05:00 +14°C° 0 mm 2 m/S 748 mmHg 82%
    06:00 +16°C° 0 mm 2 m/S 748 mmHg 78%
    07:00 +17°C° 0 mm 3 m/S 748 mmHg 73%
    08:00 +19°C° 0.1 mm 3 m/S 748 mmHg 66%
    09:00 +20°C° 0.1 mm 4 m/S 748 mmHg 59%
    10:00 +21°C° 0.1 mm 4 m/S 748 mmHg 52%
    11:00 +22°C° 0.2 mm 4 m/S 747 mmHg 54%
    12:00 +22°C° 0.2 mm 5 m/S 747 mmHg 55%
    13:00 +22°C° 0.2 mm 6 m/S 747 mmHg 56%
    14:00 +22°C° 0.1 mm 5 m/S 747 mmHg 57%
    15:00 +21°C° 0.1 mm 5 m/S 747 mmHg 57%
    16:00 +21°C° 0.1 mm 5 m/S 747 mmHg 58%
    17:00 +20°C° 0 mm 4 m/S 747 mmHg 62%
    18:00 +19°C° 0 mm 4 m/S 747 mmHg 66%
    19:00 +17°C° 0 mm 3 m/S 747 mmHg 70%
    20:00 +16°C° 0 mm 3 m/S 747 mmHg 73%
    21:00 +14°C° 0 mm 3 m/S 747 mmHg 76%
    22:00 +13°C° 0 mm 3 m/S 748 mmHg 79%
    23:00 +12°C° 0 mm 3 m/S 748 mmHg 82%

    26 Mai, Sonntag

    Zeit Temperatur Niederschläge Wind Luftdruck Luftfeuchtigkeit
    00:00 +11°C° 0 mm 3 m/S 748 mmHg 85%
    01:00 +11°C° 0 mm 3 m/S 748 mmHg 89%
    02:00 +10°C° 0 mm 3 m/S 748 mmHg 89%
    03:00 +10°C° 0 mm 3 m/S 748 mmHg 89%
    04:00 +9°C° 0 mm 3 m/S 748 mmHg 89%
    05:00 +10°C° 0 mm 3 m/S 747 mmHg 84%
    06:00 +12°C° 0 mm 4 m/S 747 mmHg 79%
    07:00 +13°C° 0 mm 5 m/S 747 mmHg 73%
    08:00 +14°C° 0 mm 5 m/S 747 mmHg 70%
    09:00 +14°C° 0 mm 6 m/S 747 mmHg 67%
    10:00 +15°C° 0 mm 6 m/S 747 mmHg 64%
    11:00 +15°C° 0 mm 6 m/S 747 mmHg 63%
    12:00 +15°C° 0 mm 6 m/S 747 mmHg 62%
    13:00 +15°C° 0 mm 7 m/S 746 mmHg 61%
    14:00 +15°C° 0 mm 7 m/S 746 mmHg 60%
    15:00 +15°C° 0 mm 7 m/S 746 mmHg 60%
    16:00 +14°C° 0 mm 7 m/S 746 mmHg 60%
    17:00 +13°C° 0 mm 6 m/S 746 mmHg 64%
    18:00 +13°C° 0 mm 5 m/S 746 mmHg 67%
    19:00 +12°C° 0 mm 5 m/S 747 mmHg 71%
    20:00 +10°C° 0 mm 5 m/S 747 mmHg 71%
    21:00 +8°C° 0 mm 4 m/S 747 mmHg 72%
    22:00 +7°C° 0 mm 4 m/S 748 mmHg 73%
    23:00 +7°C° 0 mm 4 m/S 748 mmHg 74%

    27 Mai, Montag

    Zeit Temperatur Niederschläge Wind Luftdruck Luftfeuchtigkeit
    00:00 +7°C° 0 mm 4 m/S 748 mmHg 75%
    01:00 +6°C° 0 mm 4 m/S 748 mmHg 76%
    02:00 +6°C° 0 mm 4 m/S 748 mmHg 78%
    03:00 +6°C° 0 mm 4 m/S 748 mmHg 80%
    04:00 +5°C° 0 mm 4 m/S 749 mmHg 82%
    05:00 +7°C° 0 mm 4 m/S 749 mmHg 78%
    06:00 +10°C° 0 mm 4 m/S 749 mmHg 73%
    07:00 +10°C° 0 mm 5 m/S 749 mmHg 68%
    08:00 +12°C° 0 mm 4 m/S 749 mmHg 64%
    09:00 +14°C° 0 mm 4 m/S 749 mmHg 60%
    10:00 +15°C° 0 mm 4 m/S 749 mmHg 56%
    11:00 +17°C° 0 mm 4 m/S 749 mmHg 52%
    12:00 +18°C° 0 mm 4 m/S 748 mmHg 48%
    13:00 +19°C° 0 mm 4 m/S 748 mmHg 45%
    14:00 +19°C° 0 mm 3 m/S 748 mmHg 45%
    15:00 +20°C° 0 mm 3 m/S 747 mmHg 46%
    16:00 +20°C° 0 mm 2 m/S 747 mmHg 46%
    17:00 +19°C° 0 mm 2 m/S 746 mmHg 52%
    18:00 +18°C° 0 mm 2 m/S 746 mmHg 58%
    19:00 +17°C° 0 mm 2 m/S 746 mmHg 64%
    20:00 +16°C° 0 mm 2 m/S 746 mmHg 66%
    21:00 +14°C° 0 mm 3 m/S 745 mmHg 68%
    22:00 +14°C° 0 mm 3 m/S 745 mmHg 70%
    23:00 +13°C° 0 mm 3 m/S 745 mmHg 73%
    Mehr zeigen